Location: Unspecified
(45.4615°N, 74.0512°W)
Time: 02:43:22
(UTC-04:00)

Okean 3 - Visible Passes

Search period start: 20 April 2018 00:00
Search period end: 30 April 2018 00:00
Orbit: 578 x 601 km, 82.5° (Epoch: 19 April)

Date Brightness Start Highest point End Pass type
(mag) Time Alt. Az. Time Alt. Az. Time Alt. Az.
20 Apr 6.3 00:16:09 11° NE 00:16:09 11° NE 00:16:29 10° NE visible
20 Apr 5.6 01:52:41 24° NNW 01:52:41 24° NNW 01:54:37 10° N visible
21 Apr 6.1 00:24:06 15° NE 00:24:06 15° NE 00:25:05 10° NNE visible
21 Apr 5.7 02:00:38 21° NNW 02:00:38 21° NNW 02:02:29 10° NNW visible
22 Apr 5.8 00:32:02 19° NE 00:32:02 19° NE 00:33:30 10° NNE visible
22 Apr 5.8 02:08:34 17° NW 02:08:34 17° NW 02:10:13 10° NNW visible
23 Apr 5.6 00:39:57 24° NNE 00:39:57 24° NNE 00:41:47 10° NNE visible
23 Apr 6.0 02:16:29 14° NW 02:16:29 14° NW 02:17:43 10° NNW visible
24 Apr 5.4 00:47:52 28° NNE 00:47:52 28° NNE 00:49:57 10° N visible
24 Apr 6.2 02:24:24 10° NW 02:24:24 10° NW 02:24:27 10° NW visible
25 Apr 5.3 00:55:46 30° N 00:55:46 30° N 00:58:03 10° N visible
25 Apr 6.0 23:27:08 12° NE 23:27:08 12° NE 23:27:48 10° NE visible
26 Apr 5.3 01:03:39 29° NNW 01:03:39 29° NNW 01:06:03 10° N visible
26 Apr 5.7 23:35:00 17° NE 23:35:00 17° NE 23:36:27 10° NE visible
27 Apr 5.4 01:11:32 25° NW 01:11:32 25° NW 01:13:56 10° N visible
27 Apr 5.4 23:42:52 23° NE 23:42:52 23° NE 23:44:52 10° NNE visible
28 Apr 5.6 01:19:23 20° NW 01:19:23 20° NW 01:21:42 10° NNW visible
28 Apr 5.0 23:50:43 31° NE 23:50:43 31° NE 23:53:10 10° NNE visible
29 Apr 5.9 01:27:15 15° WNW 01:27:15 15° WNW 01:29:15 10° NNW visible
